Location: Unspecified
(0.0000°N, 0.0000°E)
Time: 14:14:39
(UTC+00:00)

OBJECT PA - All Passes

Search period start: 12 December 2018 00:00
Search period end: 22 December 2018 00:00
Orbit: 390 x 400 km, 51.6° (Epoch: 11 December)

Date Brightness Start Highest point End Pass type
(mag) Time Alt. Az. Time Alt. Az. Time Alt. Az.
12 Dec - 07:53:26 10° S 07:56:08 24° SE 07:58:50 10° ENE daylight
12 Dec - 19:26:41 10° NNE 19:28:27 14° NE 19:30:13 10° E night (unlit)
12 Dec - 21:02:30 10° W 21:04:31 16° SW 21:06:32 10° SSW night (unlit)
13 Dec - 08:34:09 10° WSW 08:36:56 27° NW 08:39:43 10° N daylight
13 Dec - 20:06:10 10° NW 20:09:14 48° SW 20:12:20 10° SSE night (unlit)
14 Dec - 07:38:26 10° SW 07:41:41 87° ESE 07:44:54 10° NE daylight
14 Dec - 19:10:57 10° NNW 19:13:59 44° NE 19:17:01 10° SE visible
15 Dec - 06:43:39 10° S 06:46:23 25° SE 06:49:07 10° ENE daylight
15 Dec - 18:16:50 10° NNE 18:18:41 15° NE 18:20:32 10° E visible
15 Dec - 19:52:48 10° W 19:54:44 15° SW 19:56:41 10° SSW visible
16 Dec - 07:24:22 10° WSW 07:27:08 26° NW 07:29:53 10° N daylight
16 Dec - 18:56:21 10° NW 18:59:25 46° SW 19:02:29 10° SSE visible
17 Dec - 06:28:34 10° SW 06:31:48 90° SSE 06:35:02 10° NE daylight
17 Dec - 18:01:02 10° NNW 18:04:05 45° NE 18:07:08 10° SE daylight
18 Dec - 05:33:42 10° S 05:36:28 26° SE 05:39:13 10° ENE daylight
18 Dec - 17:06:50 10° NNE 17:08:44 15° NE 17:10:38 10° E daylight
18 Dec - 18:42:54 10° W 18:44:47 15° SW 18:46:40 10° SSW visible
19 Dec - 06:14:25 10° WSW 06:17:09 25° NW 06:19:52 10° N daylight
19 Dec - 17:46:21 10° NW 17:49:24 44° SW 17:52:27 10° SSE daylight
20 Dec - 05:18:31 10° SW 05:21:46 88° WNW 05:24:59 10° NE visible
20 Dec - 16:50:58 10° NNW 16:54:01 47° NE 16:57:05 10° SE daylight
21 Dec - 04:23:35 10° S 04:26:22 26° SE 04:29:08 10° ENE visible
21 Dec - 15:56:39 10° NNE 15:58:37 15° NE 16:00:34 10° E daylight
21 Dec - 17:32:50 10° W 17:34:39 14° SW 17:36:29 10° SSW daylight
